Vorticity
6 6 6 5 5 5 5 5 5 5 6 6 6 7 7 7 7 6 6 6 6 7 7 8 7 6 7 8 6 2 6 8 10 10 8 8 8 10 7 7 8 14 10 10 10 10 10
6 6 6 6 6 6 5 5 5 6 6 6 6 6 6 6 6 7 7 7 7 8 8 8 7 8 7 9 5 5 6 7 8 7 8 7 6 7 4 9 12 3 7 8 9 10 9
6 6 6 6 6 5 5 5 6 6 6 6 6 6 7 7 6 6 7 7 7 7 7 8 8 12 8 4 8 6 6 6 8 7 8 7 8 7 8 19 2 11 12 14 15 -6 -3
6 6 6 6 6 6 6 6 6 6 6 6 7 9 10 10 8 7 7 7 7 9 8 7 7 9 10 2 5 8 6 8 7 6 8 8 5 8 11 11 23 7 -2 8 -5 8 9
6 6 6 6 6 6 6 6 6 6 6 7 9 10 10 11 11 9 8 9 8 10 10 7 9 8 12 5 7 7 6 8 4 7 4 6 3 5 5 12 12 6 1 8 16 11 10
6 6 6 6 6 6 6 6 6 6 6 7 8 9 10 11 11 9 9 9 8 7 8 10 9 12 6 10 5 6 5 6 8 3 6 4 5 1 4 0 4 -2 1 -3 9 -6 12
6 6 6 6 6 6 6 6 6 6 7 7 8 8 9 10 10 9 9 11 9 7 11 5 5 6 7 9 6 1 4 6 6 9 4 7 6 -2 5 6 2 4 7 -1 13 11 2
6 6 6 6 7 7 7 7 7 7 7 9 11 9 9 10 11 10 9 9 9 3 7 7 2 6 3 5 11 11 4 2 9 6 7 10 7 13 -4 5 6 1 11 -5 33 -4 20
6 6 6 7 7 7 7 7 7 7 8 9 11 10 9 10 11 10 12 10 10 10 8 9 9 3 8 6 7 12 4 4 6 6 3 9 2 9 -4 10 9 -11 22 -13 7 12 37
6 6 7 7 7 7 7 7 7 7 8 8 9 11 10 9 8 9 8 9 12 11 10 15 17 15 10 6 21 -9 15 6 7 -1 11 22 5 6 2 11 11 4 10 -6 7 27 10
6 7 7 8 8 8 8 8 7 7 8 8 8 10 11 7 6 6 9 10 10 13 12 11 19 4 6 3 4 11 7 9 1 1 13 -3 10 12 -6 23 7 -12 19 1 33 16 24
7 7 8 8 7 8 8 8 7 7 7 9 8 8 10 10 7 6 5 8 11 10 13 7 4 8 -1 1 2 11 13 7 -1 13 7 20 10 6 6 3 5 5 -4 40 14 14 21
7 7 7 7 8 8 8 8 7 7 7 8 9 8 8 10 9 7 6 7 16 9 7 13 9 -7 5 -0 10 16 3 3 3 18 12 2 18 14 8 16 -4 8 10 12 15 13 0
7 7 7 7 7 7 7 7 7 7 7 8 9 9 9 9 8 10 10 11 10 3 -2 -6 2 7 -0 14 20 9 -3 9 11 16 17 21 10 9 -1 -6 0 22 7 11 11 9 -9
7 6 6 6 6 6 6 6 6 7 7 9 10 10 9 8 11 10 10 15 -1 3 9 9 -3 28 25 17 -2 7 19 13 25 6 4 5 19 -3 -9 19 20 -2 9 -7 5 22 13
6 5 6 6 7 7 7 7 8 8 9 10 10 10 9 13 9 10 7 4 -3 -2 0 7 10 9 4 2 11 17 16 2 11 9 3 9 11 15 10 9 8 12 5 5 15 9 11
6 5 5 5 6 7 8 9 9 9 10 10 10 9 13 11 4 9 12 10 11 11 11 14 5 -3 0 7 10 13 10 -7 13 19 13 5 24 -6 -1 2 6 4 5 12 5 2 4
5 4 4 5 6 7 8 8 9 9 10 9 9 10 4 8 12 7 6 9 5 0 12 10 3 8 15 14 10 12 -0 3 -5 3 4 5 4 1 4 7 9 8 14 13 -8 18 -5
5 5 5 5 5 7 7 8 9 10 10 11 10 9 15 14 8 5 7 9 13 2 8 16 6 -7 1 7 19 18 3 4 9 8 -6 -11 5 12 24 28 30 25 -1 -7 -5 15 3
5 6 6 6 6 7 7 8 9 9 10 10 11 10 9 13 19 16 9 -0 14 10 2 6 8 10 11 10 13 -4 -5 1 -5 -4 10 20 21 -21 -44 -42 -45 -21 -1 13 8 7 -11
7 7 7 6 6 7 8 9 9 9 9 9 9 10 6 -11 6 11 9 2 7 10 8 7 8 7 8 6 9 8 27 19 15 12 12 15 2 11 3 3 14 8 3 10 8 3 2
7 8 7 7 8 9 9 9 8 9 9 10 10 9 9 5 11 9 8 10 9 14 10 5 0 10 15 11 14 -10 -4 -9 -6 1 10 5 2 -2 8 11 21 25 28 15 18 18 22
8 10 10 10 9 9 9 9 9 10 9 9 8 8 7 6 8 12 11 10 3 4 18 18 6 3 3 5 6 6 3 7 2 -2 -4 5 9 7 14 18 19 46 29 44 40 31 17
11 11 9 10 10 10 10 11 10 10 10 9 9 9 9 5 7 8 7 6 6 11 8 5 8 9 3 10 8 6 8 19 29 27 31 14 9 22 10 27 36 44 -13 6 21 14 15
13 11 12 12 10 8 5 -0 -1 4 7 10 9 11 9 7 6 7 15 16 13 -0 6 19 13 10 7 9 24 41 20 39 31 24 22 16 15 -2 2 16 -20 5 24 7 -8 6 15
5 -2 -7 1 5 4 8 10 16 13 15 15 13 13 10 8 13 9 10 13 15 6 8 16 10 13 20 3 14 18 -0 -7 21 15 5 17 31 18 -7 9 3 4 3 7 12 24 19
7 22 21 22 18 15 15 19 19 19 19 19 17 17 17 17 20 6 3 11 13 16 22 16 4 8 -2 7 27 23 14 13 24 7 17 8 19 15 12 -5 28 -4 7 4 49 0 -26
11 8 9 11 12 11 12 12 12 13 13 15 14 15 15 16 17 30 13 4 -2 1 6 8 24 45 40 29 20 17 9 2 17 -1 6 -1 12 1 33 11 21 9 -5 9 -0 14 15
13 14 12 8 7 7 7 6 6 7 7 8 11 14 15 18 13 17 25 28 26 25 26 16 6 -1 -3 -4 5 19 1 -5 5 5 -16 4 7 -3 -20 -26 -28 -4 -2 19 13 21 18
Height
3149 3149 3150 3152 3152 3152 3152 3152 3151 3151 3151 3150 3150 3149 3147 3145 3144 3144 3144 3144 3143 3143 3142 3141 3140 3139 3139 3138 3137 3135 3134 3132 3131 3130 3128 3127 3126 3125 3124 3123 3123 3122 3122 3121 3120 3119 3117
3150 3150 3151 3152 3153 3153 3153 3153 3152 3152 3151 3150 3149 3147 3145 3144 3144 3143 3143 3143 3142 3142 3141 3140 3139 3138 3138 3138 3136 3135 3134 3133 3131 3130 3129 3127 3126 3125 3124 3123 3122 3122 3120 3119 3118 3116 3114
3150 3151 3152 3152 3153 3153 3153 3153 3152 3151 3150 3149 3148 3146 3144 3144 3143 3143 3142 3142 3141 3141 3140 3139 3138 3137 3137 3138 3136 3135 3134 3133 3132 3131 3129 3128 3126 3126 3124 3122 3121 3120 3119 3118 3116 3115 3112
3150 3151 3152 3152 3153 3153 3153 3152 3151 3150 3149 3148 3146 3144 3143 3143 3142 3141 3141 3140 3139 3139 3138 3138 3137 3136 3136 3136 3135 3134 3134 3133 3132 3131 3129 3128 3127 3126 3123 3122 3121 3120 3119 3117 3114 3112 3109
3150 3150 3151 3152 3152 3152 3152 3151 3150 3149 3148 3146 3145 3143 3142 3141 3140 3140 3139 3138 3138 3137 3137 3137 3136 3135 3136 3135 3134 3134 3133 3132 3131 3130 3129 3128 3126 3125 3124 3122 3120 3120 3118 3117 3113 3109 3105
3149 3150 3151 3152 3152 3152 3151 3150 3149 3148 3147 3145 3144 3143 3141 3140 3139 3138 3137 3137 3136 3136 3136 3135 3135 3136 3135 3135 3133 3133 3132 3132 3131 3129 3129 3127 3126 3124 3123 3122 3121 3119 3116 3113 3111 3105 3100
3149 3150 3151 3151 3151 3151 3150 3149 3148 3147 3146 3145 3143 3142 3140 3139 3138 3137 3136 3136 3137 3137 3135 3135 3134 3133 3133 3133 3133 3132 3131 3131 3129 3128 3127 3126 3125 3123 3122 3120 3119 3117 3115 3111 3107 3102 3095
3148 3149 3150 3150 3150 3150 3149 3148 3147 3146 3145 3144 3142 3141 3139 3138 3137 3136 3135 3134 3134 3136 3134 3133 3132 3132 3132 3132 3131 3131 3131 3130 3128 3126 3125 3125 3122 3121 3120 3119 3117 3115 3111 3108 3103 3098 3092
3147 3148 3149 3149 3149 3149 3148 3148 3147 3146 3145 3143 3141 3140 3138 3137 3136 3135 3134 3134 3133 3132 3132 3131 3131 3131 3131 3131 3129 3129 3129 3128 3126 3125 3124 3122 3121 3119 3117 3115 3114 3112 3109 3105 3100 3091 3087
3147 3148 3149 3149 3148 3148 3148 3147 3147 3145 3144 3142 3140 3139 3138 3137 3138 3135 3134 3133 3132 3131 3131 3130 3129 3129 3129 3128 3128 3127 3126 3127 3124 3123 3121 3119 3117 3116 3114 3112 3111 3108 3107 3103 3097 3091 3088
3146 3147 3148 3148 3148 3147 3147 3147 3146 3144 3143 3141 3139 3138 3137 3136 3136 3135 3135 3132 3131 3131 3131 3129 3127 3127 3127 3128 3127 3125 3124 3123 3122 3121 3121 3118 3115 3113 3112 3110 3109 3108 3104 3100 3094 3090 3087
3145 3146 3146 3147 3147 3146 3146 3146 3144 3143 3142 3140 3138 3137 3136 3136 3135 3134 3133 3132 3132 3133 3128 3126 3125 3125 3126 3125 3124 3122 3121 3121 3119 3117 3115 3113 3112 3111 3109 3108 3106 3104 3101 3096 3091 3089 3088
3144 3145 3145 3145 3145 3145 3144 3144 3143 3142 3140 3139 3137 3136 3135 3134 3134 3133 3132 3132 3133 3129 3127 3125 3124 3124 3123 3122 3121 3119 3118 3117 3117 3115 3111 3110 3109 3107 3106 3105 3104 3102 3099 3096 3095 3090 3086
3143 3144 3144 3144 3144 3143 3142 3142 3141 3139 3138 3137 3135 3134 3133 3132 3131 3131 3130 3131 3130 3126 3124 3123 3123 3122 3121 3119 3118 3116 3115 3113 3112 3111 3110 3108 3105 3105 3104 3104 3102 3100 3100 3101 3104 3094 3086
3142 3142 3142 3142 3142 3141 3141 3140 3139 3137 3136 3134 3133 3132 3131 3130 3129 3129 3129 3128 3126 3125 3123 3122 3121 3118 3117 3117 3117 3114 3112 3110 3108 3108 3109 3106 3103 3102 3101 3100 3101 3098 3098 3099 3096 3092 3090
3141 3141 3140 3140 3140 3140 3139 3138 3136 3135 3133 3132 3131 3130 3129 3128 3127 3126 3126 3125 3124 3123 3121 3120 3119 3118 3116 3114 3115 3112 3110 3107 3106 3105 3104 3102 3100 3098 3097 3097 3097 3096 3097 3095 3094 3093 3085
3139 3139 3139 3139 3139 3138 3136 3135 3134 3132 3131 3129 3128 3127 3126 3125 3125 3124 3122 3121 3120 3119 3119 3118 3116 3115 3113 3112 3110 3109 3107 3105 3102 3101 3100 3099 3098 3096 3095 3093 3092 3092 3091 3091 3091 3089 3086
3137 3137 3137 3137 3137 3135 3134 3132 3131 3130 3128 3127 3125 3125 3124 3123 3123 3120 3120 3119 3118 3116 3115 3114 3112 3110 3109 3108 3106 3105 3102 3100 3099 3098 3096 3095 3093 3090 3090 3088 3086 3086 3085 3086 3086 3084 3081
3135 3135 3135 3135 3134 3133 3132 3130 3128 3127 3126 3124 3123 3122 3121 3120 3118 3117 3117 3116 3114 3113 3112 3110 3109 3107 3106 3104 3104 3098 3096 3096 3094 3093 3090 3089 3086 3086 3082 3083 3082 3080 3081 3082 3081 3078 3070
3132 3132 3133 3132 3131 3130 3129 3127 3126 3124 3123 3122 3121 3119 3118 3117 3115 3114 3112 3112 3111 3109 3107 3106 3104 3102 3100 3099 3098 3094 3092 3090 3089 3088 3087 3084 3080 3079 3076 3076 3078 3075 3076 3076 3073 3068 3057
3130 3130 3130 3129 3128 3128 3126 3124 3123 3122 3120 3120 3117 3116 3115 3114 3113 3111 3109 3108 3106 3104 3103 3101 3098 3097 3096 3093 3090 3088 3086 3084 3083 3081 3081 3079 3071 3072 3069 3069 3069 3065 3065 3064 3059 3056 3054
3126 3126 3126 3126 3125 3124 3122 3121 3119 3119 3117 3116 3115 3113 3111 3110 3108 3106 3104 3102 3101 3098 3098 3095 3093 3091 3089 3087 3087 3084 3082 3081 3078 3073 3073 3070 3064 3063 3056 3060 3059 3052 3052 3050 3048 3045 3043
3124 3125 3124 3123 3122 3120 3119 3117 3116 3114 3113 3111 3110 3108 3107 3105 3103 3101 3099 3097 3095 3092 3091 3089 3086 3083 3081 3080 3077 3075 3073 3071 3070 3068 3065 3062 3062 3059 3046 3052 3049 3042 3040 3039 3038 3038 3037
3122 3122 3121 3120 3119 3117 3116 3113 3111 3109 3108 3107 3105 3103 3101 3099 3097 3095 3093 3091 3088 3086 3082 3082 3078 3075 3071 3070 3066 3064 3061 3059 3058 3057 3056 3051 3052 3054 3045 3047 3042 3036 3034 3034 3033 3033 3032
3121 3120 3119 3118 3116 3114 3112 3110 3107 3105 3104 3101 3098 3097 3093 3091 3089 3089 3085 3082 3080 3079 3076 3071 3070 3069 3065 3062 3059 3053 3051 3049 3045 3043 3043 3043 3046 3046 3044 3040 3035 3034 3030 3030 3029 3027 3025
3118 3117 3116 3114 3112 3109 3107 3104 3102 3098 3096 3094 3091 3088 3086 3083 3079 3079 3075 3074 3070 3068 3067 3066 3063 3061 3059 3056 3054 3050 3047 3045 3042 3039 3038 3037 3038 3040 3039 3035 3030 3025 3025 3024 3025 3024 3020
3115 3113 3112 3109 3106 3104 3101 3099 3096 3093 3090 3088 3085 3082 3079 3076 3073 3072 3068 3066 3063 3061 3056 3055 3055 3055 3053 3050 3047 3043 3038 3039 3037 3033 3033 3034 3033 3033 3032 3030 3024 3020 3019 3019 3022 3022 3015
3112 3111 3108 3104 3103 3101 3098 3094 3091 3089 3085 3082 3079 3075 3073 3070 3067 3063 3061 3058 3057 3055 3051 3049 3050 3045 3044 3043 3042 3038 3033 3033 3031 3030 3029 3030 3029 3028 3026 3025 3021 3017 3016 3019 3017 3013 3010
3109 3109 3107 3104 3101 3098 3094 3091 3088 3085 3082 3078 3075 3070 3067 3064 3061 3057 3054 3051 3049 3046 3046 3043 3044 3042 3040 3037 3036 3032 3030 3027 3026 3026 3025 3024 3024 3024 3025 3018 3013 3010 3009 3009 3009 3007 3006